SCP
2 2 3 3 3 3 2 2 2 2 2 2 1 1 1 1 1 1 1 1 1 1 1 1 1 1 1 1 1 1 1 1 1 2 2 2 1 1 1 1 1 2 2
2 2 3 3 3 3 3 2 2 2 2 2 2 1 1 1 1 1 1 1 1 1 1 1 1 1 1 1 1 1 1 1 1 1 2 1 1 1 1 1 1 1 1
2 2 2 2 3 3 3 3 2 2 2 2 2 2 2 2 1 1 1 1 1 1 1 1 1 2 2 2 2 1 1 1 1 1 1 1 1 1 1 1 1 1 1
1 1 1 2 2 2 2 3 3 2 2 2 2 2 2 2 2 2 1 1 1 2 2 1 2 2 2 2 2 1 1 1 1 1 1 1 1 1 1 1 1 1 1
1 1 1 2 2 2 2 2 2 2 2 2 2 2 3 3 3 2 2 2 2 2 2 2 2 2 2 2 2 1 1 1 1 1 1 1 1 1 1 1 1 1 1
1 1 1 1 2 2 2 2 2 2 2 1 1 2 2 3 3 3 2 2 2 2 1 1 2 2 2 2 1 1 1 1 1 1 1 1 1 1 1 1 1 1 1
1 1 1 1 2 2 2 2 2 2 2 2 2 2 2 2 3 3 3 2 2 2 2 2 1 1 2 1 1 1 1 1 1 1 1 1 1 1 1 1 1 1 1
1 1 1 2 2 2 2 2 2 3 2 2 2 2 2 2 3 3 3 2 2 2 2 2 2 2 2 2 1 1 1 1 1 2 2 2 1 1 1 1 1 1 1
1 2 2 2 2 3 3 3 3 2 2 3 3 2 2 2 3 3 3 2 2 2 2 2 2 2 2 2 2 1 1 1 1 2 2 2 2 2 1 2 2 1 1
2 2 2 2 3 4 4 4 3 2 2 2 3 2 2 2 2 2 3 2 3 3 3 2 2 2 2 2 2 1 1 1 1 2 2 2 2 2 2 2 2 1 1
2 2 2 3 3 4 4 3 3 2 2 2 2 2 2 2 2 2 2 2 3 3 3 3 2 2 2 2 2 1 1 1 1 1 1 2 2 1 2 2 2 2 1
2 2 2 2 3 3 3 2 2 2 2 2 2 2 2 1 1 2 2 2 2 3 4 3 2 2 2 2 2 1 1 1 1 1 1 1 2 2 2 2 2 2 2
2 2 2 2 2 2 2 1 1 2 2 2 2 2 2 1 1 2 2 2 2 3 4 4 3 2 2 3 2 1 1 1 1 1 1 1 2 2 2 2 2 2 2
1 1 2 2 1 1 1 1 1 1 1 2 2 2 2 1 1 2 2 2 2 2 4 4 3 2 2 2 2 1 1 1 0 0 1 1 1 2 2 2 2 2 2
1 1 2 1 1 1 1 1 1 1 1 2 2 2 2 1 1 2 1 1 1 2 3 4 3 2 1 2 2 2 1 1 0 0 0 0 1 1 1 1 1 1 2
1 1 1 1 1 1 1 1 1 1 1 1 1 1 1 1 1 2 2 1 1 1 2 3 3 2 2 1 2 2 2 1 0 0 0 0 0 0 1 1 1 1 1
1 1 1 1 1 1 1 1 1 1 1 1 1 1 1 1 1 2 2 2 2 2 2 3 2 2 2 2 2 2 2 1 1 0 0 0 0 0 0 0 0 0 0
1 1 1 1 1 1 1 0 0 0 0 0 0 1 1 1 1 2 2 2 2 2 2 2 2 2 2 2 2 2 2 2 1 0 0 0 0 0 0 0 0 0 0
0 0 1 1 1 1 1 1 0 0 0 0 0 0 1 1 1 1 1 2 2 2 2 2 2 2 2 1 2 2 2 2 1 0 0 0 0 0 0 0 0 0 0
0 0 1 1 1 1 1 1 0 0 0 0 0 0 1 1 1 1 1 2 2 2 2 2 1 1 1 1 1 1 2 2 1 1 0 0 0 0 0 0 0 0 0
0 0 0 1 0 0 0 0 0 0 0 0 0 0 1 1 1 0 1 1 2 2 2 1 1 1 1 1 1 1 1 1 1 1 1 1 1 1 1 0 0 0 0
1 1 1 1 0 0 0 0 0 0 0 0 0 1 1 1 1 0 0 1 1 1 2 1 1 1 1 1 1 1 1 1 2 2 2 2 1 1 1 1 0 0 0
1 1 1 1 0 0 0 0 0 0 0 0 1 1 1 1 1 1 1 1 1 1 1 1 1 1 1 1 2 2 2 2 3 3 3 2 2 2 1 1 0 0 0
1 1 1 1 0 0 0 0 0 0 0 1 1 1 1 1 1 1 1 1 1 1 1 1 1 1 1 2 2 2 1 2 4 5 4 4 3 2 2 2 1 0 0
1 1 1 1 1 0 0 0 0 0 1 1 1 1 1 1 1 1 1 1 1 1 1 1 1 1 1 1 1 1 1 2 4 5 5 5 5 4 3 3 1 0 0
1 1 1 1 1 1 0 0 0 0 1 1 1 1 1 1 1 0 1 1 1 1 1 1 1 1 1 1 1 1 1 1 3 4 5 5 5 5 4 3 2 0 0
Wind_Speed
2 2 1 1 2 2 3 3 2 2 3 4 4 4 4 3 3 3 2 6 5 4 4 4 4 5 5 5 6 6 7 7 7 7 7 6 6 6 6 5 5 5 6
2 2 2 2 2 2 2 2 2 2 3 2 3 2 3 3 3 3 2 4 6 4 3 3 4 4 5 5 6 7 7 7 7 8 8 7 7 6 6 6 6 6 6
2 2 2 2 2 2 3 3 3 3 3 3 3 3 3 3 2 2 3 2 4 6 5 3 3 3 4 4 5 6 7 7 7 7 7 8 8 7 7 7 7 7 7
3 3 2 2 2 2 2 2 3 2 2 2 2 2 2 2 2 2 3 3 2 3 5 5 4 3 4 4 4 5 6 7 7 7 7 7 8 8 8 8 8 7 7
3 4 2 1 3 2 2 3 2 2 2 2 2 2 2 2 2 3 2 3 2 2 2 6 6 5 4 4 5 6 6 8 8 8 8 8 8 8 8 8 8 8 8
3 3 3 3 4 3 2 2 2 2 2 2 2 1 2 2 2 2 3 3 2 3 3 2 4 5 6 4 4 6 7 7 7 8 8 9 8 8 8 9 9 9 9
2 3 2 2 3 3 3 3 3 3 3 2 3 2 3 3 2 3 3 2 3 3 3 3 3 2 4 7 5 4 5 6 7 7 7 7 7 7 8 9 9 9 9
2 2 2 3 3 3 3 3 3 2 2 2 2 2 3 4 3 3 3 3 3 3 2 3 2 3 4 3 3 4 5 6 7 8 8 8 8 8 8 8 9 10 9
1 2 2 3 3 3 2 3 3 3 3 3 2 2 3 2 2 4 4 3 2 2 2 2 3 3 4 3 2 3 3 5 7 8 9 8 8 9 9 9 9 9 9
1 1 2 3 3 2 2 3 3 3 4 3 2 2 3 2 3 2 4 4 3 3 3 3 3 3 3 3 2 0 1 3 5 7 7 7 8 9 9 10 10 10 10
1 1 1 1 2 2 2 2 2 3 3 3 2 2 3 2 4 3 3 2 3 3 2 3 3 3 3 3 3 1 1 3 4 6 7 7 7 8 9 9 9 9 9
1 2 2 1 2 2 2 2 3 3 2 2 2 2 2 2 2 3 3 3 3 2 2 2 3 3 3 3 2 2 1 3 4 5 6 6 7 7 7 8 8 9 9
1 1 1 1 1 2 2 2 2 2 2 2 2 2 2 2 2 2 3 3 3 2 2 3 2 2 3 3 1 1 2 2 3 5 5 6 6 7 7 8 8 9 9
1 1 2 1 2 2 2 2 2 2 2 2 2 2 2 2 2 2 3 3 3 3 2 2 1 2 2 3 2 4 2 1 2 4 5 5 6 6 7 7 8 8 9
1 1 1 2 2 2 2 3 2 2 2 2 2 2 2 2 2 2 3 4 4 4 2 1 2 1 2 2 1 4 4 2 2 3 4 4 5 5 6 6 7 7 8
1 1 1 2 2 2 2 2 2 2 2 2 1 1 2 2 2 2 3 3 4 4 4 2 2 2 3 4 1 4 4 3 5 4 3 3 4 5 6 6 6 6 6
1 1 1 2 2 2 2 2 2 2 2 2 2 2 2 3 3 3 3 3 3 4 4 3 3 1 2 4 4 4 4 4 2 6 5 4 5 5 6 6 6 5 6
1 2 2 2 2 2 2 3 2 2 2 2 2 2 2 2 3 3 3 3 3 3 5 5 4 3 3 4 4 5 5 4 4 5 7 6 6 6 6 6 6 5 5
2 2 2 2 2 2 2 2 2 2 2 2 2 2 3 3 3 2 3 3 3 3 3 4 4 3 3 3 4 5 5 4 6 3 7 8 8 7 7 7 6 6 6
2 2 2 1 2 2 2 2 2 2 2 2 2 3 3 3 3 3 4 4 4 4 4 4 4 3 3 3 4 4 4 3 4 4 3 4 5 8 9 8 7 6 6
2 2 1 1 1 2 1 1 2 2 2 3 3 3 3 2 3 4 4 4 4 4 4 3 3 4 3 3 4 4 4 5 4 4 4 4 3 4 5 8 8 6 6
1 1 1 1 1 1 3 1 3 2 2 3 3 3 3 4 4 6 5 4 4 5 5 4 4 4 4 4 4 5 5 5 5 3 5 5 4 4 4 3 2 4 5
1 1 1 1 1 1 3 2 3 4 3 3 3 4 4 2 4 4 4 7 7 7 7 6 6 6 6 5 5 6 5 6 6 4 5 6 4 4 4 1 4 5 5
1 1 1 1 1 1 3 3 4 5 3 4 4 4 4 4 3 4 4 4 4 3 5 6 5 6 5 5 5 6 6 6 7 4 4 6 4 4 4 2 4 5 5
1 1 1 1 1 1 2 3 4 3 3 4 4 4 4 4 0 2 4 4 4 3 3 4 4 5 5 6 6 6 5 5 5 4 2 4 4 4 4 3 2 6 6
1 2 1 1 2 2 1 3 4 4 3 3 3 3 3 3 1 2 4 4 5 4 4 3 4 6 6 6 8 6 5 5 5 4 2 3 4 4 4 3 3 2 3
Wind_Direction
232 221 215 238 246 217 208 221 224 206 228 220 221 221 233 242 249 240 154 152 175 200 205 202 199 204 205 213 215 215 216 218 219 217 216 212 212 216 221 224 224 223 221
243 237 221 222 233 234 240 235 217 217 229 234 233 230 241 247 238 246 230 164 164 176 186 198 201 209 210 215 218 219 219 220 225 226 219 217 218 221 227 231 230 229 228
248 254 243 233 237 237 228 230 221 219 217 214 215 220 225 240 233 219 238 228 168 162 170 178 187 203 213 221 226 225 223 223 224 228 226 221 221 222 227 234 237 236 235
252 255 244 236 236 235 231 212 223 220 216 224 219 229 223 205 207 196 213 217 214 184 168 169 182 199 210 223 233 238 233 225 224 229 233 231 228 227 230 235 239 239 236
248 245 243 248 240 233 233 232 205 221 213 221 215 213 221 213 192 197 207 213 203 217 202 160 179 199 214 229 241 245 247 238 230 232 235 235 232 233 236 236 238 238 236
251 249 223 233 246 231 224 223 219 209 233 230 230 205 217 216 205 199 215 213 212 218 225 208 198 192 199 222 240 250 252 246 236 238 240 239 237 236 238 236 236 234 234
246 246 243 218 243 232 232 223 218 195 207 216 217 201 198 205 204 207 217 222 211 221 232 234 244 250 201 196 210 240 253 254 248 246 248 247 245 243 240 238 237 234 232
245 228 238 233 229 223 216 217 215 220 200 212 246 236 215 197 198 207 210 212 224 226 230 235 251 252 267 247 164 207 249 258 258 255 251 247 244 245 243 241 241 237 234
252 266 242 245 233 226 212 218 212 214 219 211 243 272 263 250 204 190 211 217 225 240 242 236 239 254 264 269 249 192 243 264 265 263 260 253 249 245 245 244 245 242 240
232 243 243 233 237 226 219 225 207 221 229 227 204 243 281 315 271 220 202 203 216 234 257 272 269 255 259 265 261 356 252 274 275 274 271 263 257 252 250 249 247 246 243
207 243 257 238 227 227 222 227 210 221 225 238 236 226 237 241 254 269 261 239 227 229 239 254 268 271 266 263 266 332 242 272 280 279 277 271 266 260 255 251 246 245 246
185 209 224 232 234 227 210 217 220 204 221 238 256 254 249 253 255 263 266 253 251 237 235 247 251 262 264 265 277 35 263 260 272 280 279 273 267 264 260 257 250 248 250
186 190 220 220 229 214 194 198 201 212 211 217 242 260 269 273 279 271 270 269 269 255 230 233 243 270 283 281 304 7 232 242 274 278 277 274 270 265 263 260 254 250 251
234 215 216 205 211 203 188 177 184 188 192 210 228 250 263 278 277 271 277 280 269 259 232 250 261 266 291 285 19 275 257 156 289 288 281 277 274 268 265 265 260 254 251
225 204 207 209 203 192 185 184 172 188 186 204 206 203 236 249 257 265 268 275 279 284 284 246 264 258 286 289 319 288 290 108 256 273 279 282 281 278 275 272 268 259 254
216 200 192 193 189 183 186 192 188 181 190 190 204 215 246 257 252 253 257 265 270 277 288 300 284 298 315 301 273 286 282 200 219 223 239 264 277 280 278 274 269 263 260
178 176 163 171 178 175 175 181 204 187 192 192 210 208 228 270 271 269 270 269 267 274 273 287 293 284 280 290 299 290 277 268 229 188 205 235 251 263 268 267 266 265 265
149 148 146 151 163 162 174 183 191 183 195 204 215 230 246 245 256 268 279 280 282 284 275 285 288 278 265 264 277 277 276 274 276 184 193 219 233 242 249 254 258 259 259
142 136 143 154 165 167 171 178 182 192 204 218 231 245 251 250 253 261 267 273 275 272 270 272 279 289 279 283 274 266 273 277 273 218 198 209 218 226 233 236 241 245 247
142 137 141 154 170 183 180 181 187 202 216 228 239 248 252 257 263 269 264 270 278 279 269 268 277 282 279 289 282 284 283 276 283 284 283 259 220 215 222 224 229 235 238
159 159 162 162 181 189 182 196 215 213 219 228 235 243 241 265 297 283 288 293 287 279 280 279 281 288 300 305 294 292 293 294 287 289 288 273 249 246 229 219 219 228 236
171 175 167 186 201 180 102 131 271 241 232 236 242 247 232 221 233 229 237 254 274 275 285 284 283 296 297 297 303 295 296 295 295 299 295 289 286 284 279 275 159 187 217
172 184 195 211 211 128 140 196 250 255 241 246 253 260 268 266 255 264 223 216 227 232 246 271 283 293 293 299 299 291 294 294 295 295 291 288 286 283 285 300 147 180 208
203 218 233 222 231 178 170 208 243 241 249 248 249 255 265 274 282 292 280 269 259 240 234 241 268 280 291 299 289 282 280 275 271 264 270 284 289 292 296 279 164 183 202
207 219 217 231 237 229 175 211 247 244 246 252 254 254 259 265 299 285 270 272 275 270 231 227 249 262 274 272 279 284 282 276 282 284 271 281 291 299 294 281 197 188 203
228 242 239 253 254 263 168 212 245 258 264 268 252 241 221 247 270 248 266 273 280 296 303 275 241 237 242 238 233 254 276 283 286 288 302 291 291 292 287 286 294 245 221